Flag for Canada Weather past 2 weeks in Belleville, Ontario, Canada

Now
36 °F

Light rain. Low clouds.


Feels Like: 29 °F
Forecast: 32 / 41 °F
Wind: 8 mph from Southwest

Location: Trenton

Current Time: Mar 30, 2015 at 6:49:08 AM

Latest Report: Mar 30, 2015 at 6:00 AM


Visibility: 5 mi

Pressure: 29.56 "Hg

Humidity: 93%

Dew point: 34 °F

Location of BellevilleLocation

Historic Weather in Belleville — Graph

°F

Belleville temperature yesterday

Maximum temperature yesterday: 39 °F (at 11:00 PM)
Minimum temperature yesterday: 19 °F (at 5:00 AM)
Average temperature yesterday: 29 °F

Past Weeks' High & Low Weather Summary

 TemperatureHumidityPressure
High43 °F (Mar 25, 1:00 PM)100% (Mar 16, 5:00 AM)30.42 "Hg (Mar 16, 5:00 AM)
Low9 °F (Mar 23, 6:00 AM)25% (Mar 28, 6:00 PM)29.59 "Hg (Mar 30, 5:00 AM)
Average29 °F70%30.07 "Hg
* Reported Mar 15 5:00 AM — Mar 30 5:00 AM, Belleville, Weather by CustomWeather, © 2015

Note: Actual official high and low records may vary slightly from our data, if they occured in-between our weather recording intervals... More about our weather records

Advertising

Belleville weather history for previous 24 hours

 ConditionsComfort  
Time TempWeatherWind HumidityBarometerVisibility
5:00 AM
Mon, Mar 30
34 °FLight snow. Low clouds.10 mph93%29.59 "Hg1 mi
4:52 AM34 °FLight snow. Overcast.12 mph93%29.60 "Hg1 mi
4:00 AM36 °FLight snow. Overcast.17 mph81%29.62 "Hg6 mi
3:54 AM36 °FLight snow. Overcast.15 mph81%29.63 "Hg7 mi
3:00 AM36 °FLight snow. Mostly cloudy.12 mph81%29.67 "Hg12 mi
2:00 AM36 °FOvercast.8 mph81%29.72 "Hg15 mi
1:00 AM34 °FOvercast.6 mph93%29.78 "Hg15 mi
12:45 AM36 °FOvercast.7 mph87%29.79 "Hg15 mi
12:00 AM36 °FLight rain. Mostly cloudy.14 mph87%29.84 "Hg7 mi
11:52 PM
Sun, Mar 29
34 °FLight rain. Mostly cloudy.17 mph93%29.85 "Hg7 mi
11:00 PM39 °FOvercast.31 mph52%29.87 "Hg15 mi
10:00 PM37 °FOvercast.10 mph48%29.86 "Hg15 mi
9:00 PM34 °FOvercast.2 mph60%29.90 "Hg15 mi
8:00 PM32 °FOvercast.6 mph64%29.95 "Hg15 mi
7:00 PM34 °FPartly sunny.5 mph60%29.99 "Hg15 mi
6:00 PM36 °FPartly sunny.9 mph48%30.02 "Hg15 mi
5:00 PM37 °FPassing clouds.15 mph48%30.06 "Hg15 mi
4:00 PM36 °FPassing clouds.16 mph56%30.11 "Hg15 mi
3:00 PM36 °FPassing clouds.16 mph56%30.14 "Hg15 mi
2:00 PM34 °FPassing clouds.17 mph60%30.19 "Hg15 mi
1:00 PM34 °FScattered clouds.15 mph60%30.22 "Hg15 mi
12:00 PM32 °FScattered clouds.15 mph64%30.25 "Hg15 mi
11:00 AM32 °FPassing clouds.13 mph64%30.27 "Hg15 mi
10:00 AM30 °FPassing clouds.10 mph59%30.28 "Hg15 mi
9:00 AM27 °FPassing clouds.5 mph59%30.29 "Hg15 mi
8:00 AM23 °FSunny.6 mph74%30.28 "Hg15 mi
7:00 AM19 °FClear.5 mph73%30.26 "Hg15 mi
6:00 AM21 °FClear.5 mph74%30.24 "Hg15 mi
Weather by CustomWeather, © 2015

See weather overviewHow to use our weather pages